Location: Aressy
(43.2833°N, 0.3167°W)
Time: 20:53:18
(UTC+00:00)

Cosmos 1833 Rocket - Pass Details

Date: 28 January 2021
Orbit: 833 x 839 km, 71.0° (Epoch: 02 March)

Event Time Altitude Azimuth Distance (km) Brightness Sun altitude
Rises 19:01:50 0° 330° (NNW) 3,390 6.2 -20.7°
Reaches altitude 10° 19:04:19 10° 326° (NW) 2,453 5.5 -21.2°
Maximum altitude 19:09:46 53° 251° (WSW) 1,024 3.4 -22.2°
Drops below altitude 10° 19:15:11 10° 176° (S) 2,440 5.1 -23.2°
Sets 19:17:39 0° 172° (S) 3,371 5.8 -23.6°
